GFSCGP_925_spd_273.txt.gz
Wind_Speed
3 5 7 7 9 11 13 13 15 10 3 10 12 11 9 8 11 10 8 7 7 9 11 13 13 16 16 16 16 17 18 16 16 15 16 13 13 12 13 11 12 8 9 10
6 8 3 11 14 17 16 17 8 9 8 8 10 9 6 6 7 7 8 6 6 7 8 10 12 14 15 14 13 14 16 17 16 14 12 10 13 11 11 10 10 10 12 11
9 4 4 11 10 11 4 5 10 8 12 12 13 4 6 4 6 6 5 6 6 6 5 8 13 12 11 12 14 14 15 16 14 17 18 16 14 11 10 13 12 14 12 11
8 2 4 5 4 1 3 0 15 19 8 4 9 2 8 8 7 5 4 4 5 5 5 8 8 8 9 9 9 11 12 12 14 16 14 14 13 13 14 15 14 15 12 11
4 2 4 7 4 1 5 10 14 14 3 7 9 4 3 7 10 10 7 6 5 5 5 6 6 7 9 10 12 11 11 12 14 15 15 13 13 12 13 14 17 14 13 11
5 1 4 4 5 7 15 7 4 6 2 4 4 4 7 7 12 8 7 5 4 5 6 6 6 8 9 10 10 9 11 12 12 15 15 14 13 13 16 17 16 16 14 12
4 5 3 5 2 5 6 1 5 5 4 4 1 6 4 10 1 2 7 5 4 5 3 4 6 8 8 9 7 9 10 11 14 15 15 15 14 14 16 17 18 17 15 14
2 2 6 9 4 3 5 3 4 6 5 5 2 3 5 9 10 10 6 5 3 2 3 5 6 6 3 5 8 9 11 14 15 14 16 15 12 14 15 17 18 17 14 14
3 4 2 7 8 4 2 4 3 2 1 3 2 0 9 7 6 6 5 5 1 6 5 5 3 3 6 7 8 9 12 15 13 14 17 14 13 14 15 15 14 13 12 11
2 4 3 3 3 10 6 2 2 2 5 9 1 2 5 11 1 4 3 4 7 4 2 1 1 2 3 8 9 10 11 13 14 13 13 13 12 12 12 12 13 13 12 12
2 2 3 1 6 7 6 4 4 1 3 3 4 4 4 7 3 3 4 5 2 1 5 4 5 8 8 8 10 11 12 15 15 14 13 12 13 15 14 12 12 12 12 10
4 2 3 3 1 6 8 5 3 3 2 2 2 3 4 3 5 4 4 6 8 6 4 5 5 8 9 11 12 13 14 14 14 12 12 13 16 17 14 13 14 12 9 8
2 3 2 3 5 3 6 7 3 2 1 4 4 3 3 2 3 6 6 8 6 6 4 6 9 10 11 12 13 13 13 13 11 11 13 15 16 16 15 13 12 16 12 8
4 3 3 3 3 2 3 9 7 3 4 2 4 3 3 2 4 5 6 6 7 6 6 8 11 12 12 13 13 13 13 11 10 11 11 13 15 15 15 13 12 11 9 9
3 3 4 6 6 7 5 6 10 10 5 4 3 4 3 5 4 6 6 6 5 6 8 9 11 13 15 15 16 16 12 11 11 11 12 13 14 17 14 13 16 14 8 6
3 4 3 3 5 5 6 4 4 5 3 1 2 3 3 6 7 6 6 5 5 7 8 9 11 13 14 14 14 14 13 12 12 13 14 12 15 18 15 12 11 14 14 11
2 5 2 2 4 4 2 4 3 2 2 3 6 3 7 5 5 5 4 5 6 7 8 8 10 11 11 12 11 10 10 11 12 13 14 15 16 19 16 15 13 13 13 10
4 3 2 2 2 1 2 2 5 5 4 2 0 1 2 4 5 4 4 4 5 6 7 8 10 10 11 11 10 8 11 11 12 14 15 15 14 17 18 15 16 15 13 12
3 4 3 1 0 2 2 1 3 4 6 4 1 4 6 7 6 4 4 6 5 6 5 6 6 7 8 10 9 9 10 11 13 15 15 14 14 15 15 17 16 16 15 15
7 7 2 1 1 1 1 1 4 3 1 4 2 3 6 6 4 4 4 4 5 5 5 6 7 7 9 10 9 10 12 13 14 14 14 13 12 12 13 15 15 15 15 14
2 2 4 1 1 1 1 4 1 4 4 2 2 2 6 1 3 6 6 5 6 5 5 5 7 9 9 9 8 9 11 13 13 12 11 12 13 13 13 13 13 14 14 16
1 1 1 1 1 1 3 2 3 3 3 3 3 4 5 7 7 6 4 4 5 5 4 6 7 7 7 9 8 9 13 14 13 11 9 10 10 12 12 13 13 12 12 13
1 2 2 2 2 2 3 2 4 3 5 4 5 6 8 8 6 4 4 4 4 4 5 6 5 6 7 8 9 10 15 15 12 10 10 10 13 20 20 16 13 13 12 12
1 1 0 1 1 0 2 4 3 4 7 7 8 8 5 6 5 4 4 2 2 4 5 5 3 6 7 9 10 12 14 12 12 12 13 13 13 14 17 14 14 14 16 15
2 3 1 1 2 2 4 3 6 8 10 10 8 6 5 5 4 4 4 3 4 4 4 4 4 5 6 9 11 11 10 12 13 13 13 13 14 13 13 11 13 11 12 14
2 1 0 2 2 2 2 8 9 10 10 9 8 6 6 4 5 5 5 4 4 4 4 4 5 5 6 8 10 12 11 11 12 13 13 12 12 12 12 11 11 16 17 21

GFSCGP_925_spd_276.txt.gz
Wind_Speed
5 8 9 11 10 10 8 10 12 9 6 5 8 9 7 6 6 8 7 7 8 10 10 10 9 9 10 11 13 15 15 13 14 14 16 16 16 12 11 10 10 8 10 10
6 10 7 8 8 8 8 9 8 6 4 4 7 6 7 5 8 8 6 7 6 6 9 9 9 9 10 11 13 14 14 13 14 16 14 14 14 12 10 10 11 10 12 11
9 11 6 6 6 3 3 7 6 2 7 4 9 11 10 8 7 6 5 5 6 6 7 7 9 8 10 12 12 13 13 13 13 15 16 16 14 13 12 15 14 14 12 12
9 6 5 3 3 7 2 3 5 10 10 5 13 5 15 15 10 8 7 5 5 6 6 6 7 8 9 10 11 12 12 13 14 14 16 15 15 16 15 14 14 17 14 13
8 5 2 7 7 4 6 1 5 9 11 6 14 6 10 11 10 10 7 5 5 4 4 8 9 9 7 8 11 11 12 13 13 15 16 16 17 18 17 17 17 14 12 9
9 4 7 4 5 8 7 2 5 9 8 12 8 4 9 3 5 2 10 7 6 5 5 8 7 6 6 8 10 12 12 13 15 17 15 15 17 16 16 16 17 16 17 12
8 5 5 8 4 8 6 8 11 9 7 6 6 6 11 15 11 9 9 9 8 7 9 10 9 11 10 10 11 13 14 16 18 17 15 17 17 16 16 17 17 18 17 14
5 8 5 8 8 7 4 8 8 13 11 12 5 4 5 8 7 7 10 9 8 5 6 10 9 11 12 12 13 14 16 19 18 17 16 17 16 16 15 14 16 16 16 14
2 4 5 7 8 9 9 6 7 10 12 9 3 11 8 4 4 4 5 5 3 3 5 7 9 10 11 13 12 15 17 17 18 18 16 15 14 15 16 17 16 16 15 14
3 2 1 3 5 7 9 5 7 5 7 9 2 6 6 10 3 3 5 3 4 2 3 5 8 9 9 10 15 14 16 19 20 17 14 15 17 17 18 20 17 16 15 14
5 4 6 5 8 10 8 7 5 4 4 6 7 5 4 7 5 2 3 1 4 2 4 6 9 7 11 16 15 15 16 15 15 16 16 18 17 17 16 15 14 15 15 10
5 4 3 6 5 5 8 7 6 5 3 4 5 4 5 5 6 4 4 6 6 6 7 3 8 13 16 17 17 15 13 15 14 14 15 14 17 18 17 15 11 15 14 10
3 3 6 10 7 6 6 8 5 2 4 6 8 5 5 3 5 6 6 6 6 6 9 11 14 16 18 18 16 15 15 13 14 13 12 13 16 18 17 15 13 10 9 8
2 2 4 6 7 2 3 6 8 6 5 5 6 7 4 5 6 4 5 4 9 5 7 10 14 16 16 16 16 17 16 13 12 12 13 14 17 16 15 13 16 13 6 8
3 4 4 7 5 4 4 5 8 8 7 6 9 7 8 5 5 5 5 6 4 7 10 11 12 15 15 14 14 14 12 12 12 12 14 15 20 16 11 10 12 13 10 6
2 3 2 4 3 2 3 4 3 5 7 6 6 5 4 3 3 5 2 4 6 8 10 11 13 15 13 13 12 10 12 12 12 14 15 15 16 14 14 11 7 9 8 9
1 3 3 4 2 4 5 7 6 6 5 7 9 8 1 1 1 2 3 3 7 9 9 9 14 11 10 11 10 11 11 11 13 13 15 15 13 14 14 14 14 13 11 10
5 1 2 3 3 1 6 3 6 8 5 6 2 4 4 4 4 3 4 6 7 8 7 11 10 9 8 8 9 10 12 12 12 13 13 14 14 14 15 14 14 13 12 11
3 2 2 3 1 3 4 2 6 10 4 6 7 2 2 2 5 5 6 7 7 8 7 8 7 6 7 8 9 9 10 11 12 13 13 13 14 14 13 13 12 11 9 9
5 2 3 1 2 2 6 2 6 7 4 5 6 4 1 3 8 9 5 5 7 5 7 7 7 6 7 9 8 9 10 11 11 12 12 12 12 11 11 11 13 10 11 11
2 2 5 2 1 4 5 5 5 5 5 4 6 5 1 3 6 7 4 7 6 5 4 5 6 8 7 6 7 9 11 12 11 10 9 10 10 8 9 11 12 14 16 16
4 4 4 1 2 3 6 4 7 5 3 3 4 3 4 6 5 4 5 7 5 2 5 5 4 3 4 6 7 10 11 10 8 8 7 9 9 8 8 10 8 10 10 7
2 5 4 6 5 3 3 6 6 3 3 3 4 5 6 5 4 4 7 5 3 1 3 4 3 5 4 6 8 9 10 8 8 10 12 13 11 10 9 13 13 16 15 15
4 1 2 4 4 3 4 6 5 5 6 6 6 5 4 6 4 6 5 3 2 3 5 3 3 7 6 7 7 8 7 8 11 11 11 11 10 9 9 10 13 19 17 14
5 2 2 3 6 1 4 3 6 7 7 7 6 5 6 6 6 4 3 2 5 1 4 3 5 5 6 6 8 8 9 11 10 10 11 10 8 9 11 15 14 15 20 19
9 8 5 7 6 6 5 7 7 7 6 6 6 7 6 5 6 5 4 2 6 5 2 3 3 3 6 5 8 9 9 8 7 8 8 9 7 10 10 9 10 16 19 20

GFSCGP_925_spd_279.txt.gz
Wind_Speed
16 11 6 8 12 8 7 10 5 5 5 4 5 7 8 8 11 11 7 9 8 8 10 10 8 9 9 11 11 12 13 14 16 16 14 14 14 12 11 7 9 11 9 14
11 8 7 6 7 6 6 8 14 7 3 5 8 8 6 7 8 14 8 7 11 12 11 11 8 10 9 7 7 11 13 14 15 17 14 13 15 12 10 5 13 8 13 14
7 13 3 3 3 10 10 16 14 10 3 11 3 14 14 10 10 10 8 8 7 9 9 8 7 5 5 6 8 12 14 14 14 16 16 16 16 14 16 17 18 18 15 14
6 5 3 7 4 9 6 7 9 9 9 13 19 12 18 14 10 7 5 7 3 8 9 8 4 7 7 8 10 10 11 13 15 16 19 16 18 18 17 14 13 16 13 12
5 6 3 1 9 10 10 12 14 16 14 17 8 5 7 13 8 7 5 6 5 9 8 6 22 18 5 6 11 14 12 14 17 17 19 15 17 18 16 16 16 15 14 11
8 4 5 8 4 4 7 13 17 16 8 6 8 8 14 10 12 5 10 9 8 8 10 10 3 13 8 12 15 17 16 18 19 18 16 15 17 17 18 16 15 16 16 15
5 6 6 7 13 3 9 15 12 13 7 9 12 2 8 13 16 11 13 10 9 5 1 1 6 16 13 13 13 19 21 19 20 21 18 19 18 17 16 17 16 18 17 15
9 5 8 5 7 10 19 8 9 14 15 15 12 6 5 9 10 13 12 7 6 3 1 4 10 13 15 16 15 13 17 16 18 17 19 17 16 16 16 17 17 16 18 15
6 6 4 4 7 8 13 12 16 11 19 14 8 11 10 9 7 4 4 6 1 4 4 10 9 12 13 11 17 14 13 16 19 18 15 15 17 18 19 18 16 15 15 16
6 12 4 7 7 2 13 9 10 8 7 9 17 10 7 10 6 4 1 1 4 1 12 7 10 10 8 18 17 14 15 19 19 16 17 18 19 18 18 16 15 14 16 12
11 6 1 9 8 11 12 8 6 4 7 8 9 7 9 9 11 9 6 4 10 9 7 7 7 18 22 18 17 18 18 17 16 15 16 15 16 20 18 17 14 13 13 10
6 6 8 6 7 4 4 8 6 8 7 7 11 5 4 9 12 8 7 7 8 9 11 13 17 20 18 18 19 20 20 16 15 16 15 16 21 19 15 17 14 11 10 9
7 3 9 7 7 2 6 7 8 4 7 5 10 6 7 8 4 10 11 12 9 10 10 17 18 18 17 18 16 17 15 14 15 15 17 22 20 15 13 14 15 12 9 7
3 3 5 8 8 4 4 6 9 7 7 11 6 6 7 6 10 6 8 8 7 10 13 14 15 14 14 15 15 14 16 17 13 18 19 18 16 14 13 12 12 11 8 8
6 1 1 5 4 4 3 6 7 10 8 6 10 11 9 10 10 9 10 5 10 9 12 12 11 11 15 13 13 15 14 13 12 14 12 18 17 16 18 17 12 10 10 9
2 2 7 6 3 1 1 3 5 6 6 8 10 6 4 6 7 8 6 10 10 13 12 11 10 14 13 11 12 12 13 12 15 17 14 12 15 16 16 16 15 13 14 13
4 1 6 8 3 6 2 9 10 10 9 9 10 10 8 5 2 6 6 2 6 11 9 7 11 11 11 13 11 10 10 13 13 15 15 11 10 14 13 13 13 14 14 14
1 3 4 4 5 1 7 9 5 10 8 9 11 10 9 9 6 6 8 11 11 8 8 9 10 10 10 10 8 8 10 11 12 13 15 15 14 14 14 11 12 11 10 11
5 6 1 4 2 7 4 10 9 11 6 8 10 10 5 5 2 9 6 10 8 11 7 8 8 9 8 7 8 9 10 10 11 12 12 14 12 12 13 11 10 10 9 9
5 5 2 4 3 4 8 9 9 9 2 7 10 10 10 9 6 5 3 11 10 5 8 7 9 7 7 7 8 10 11 10 11 11 11 11 11 13 11 15 14 10 12 11
3 3 3 3 1 7 9 10 10 5 6 10 9 8 8 7 7 8 12 5 7 5 5 4 6 6 5 6 9 11 10 10 9 9 8 7 6 7 8 9 9 8 7 6
4 5 5 3 3 5 12 7 8 5 4 6 6 8 6 4 7 9 4 5 3 5 4 3 4 2 4 6 9 10 9 7 6 6 5 5 7 9 9 11 9 10 8 7
5 7 5 7 5 6 8 7 5 4 6 7 6 6 3 5 5 6 3 3 1 5 4 2 3 1 3 6 6 6 6 4 7 5 5 7 9 11 10 10 14 15 15 17
7 4 4 5 5 8 5 4 4 7 6 6 5 4 3 5 6 1 2 2 5 3 0 3 3 0 5 5 5 5 3 6 6 5 5 6 11 10 10 15 17 18 17 18
9 7 9 8 9 6 5 6 4 5 5 5 6 5 4 8 2 3 4 4 3 3 2 2 2 3 4 4 5 6 6 4 3 3 6 5 7 7 8 11 12 13 17 16
11 8 5 5 10 9 8 5 4 2 4 5 4 4 3 8 3 4 3 5 3 2 1 0 0 4 3 4 5 5 4 4 5 7 4 7 6 3 6 5 8 12 15 17

GFSCGP_925_spd_282.txt.gz
Wind_Speed
13 10 8 6 11 10 9 4 3 3 8 14 5 14 15 20 18 16 12 10 9 10 10 9 9 10 7 8 7 11 14 14 16 18 15 14 17 17 10 9 10 5 7 12
13 1 11 7 7 11 13 5 5 4 10 18 14 8 11 19 18 16 13 11 10 10 11 11 10 5 5 4 9 12 12 14 11 14 15 11 16 19 14 12 10 13 11 10
13 15 8 6 11 9 9 11 12 17 10 17 5 12 17 14 14 13 9 14 10 11 6 6 14 9 7 6 9 10 9 10 10 14 19 15 16 20 17 18 15 16 14 13
6 8 7 7 7 12 9 11 16 18 17 10 8 2 4 5 7 7 10 14 12 11 9 11 12 11 8 14 12 10 8 13 15 16 12 16 15 14 15 14 14 15 12 11
0 5 7 11 12 10 12 16 16 20 19 5 0 5 4 13 10 6 11 11 12 11 11 5 6 9 10 5 4 15 19 19 15 15 14 14 16 16 17 17 16 16 15 14
4 5 5 10 6 3 11 16 22 18 9 4 5 1 7 8 6 13 9 12 11 8 5 3 5 6 2 6 14 14 16 15 16 17 17 19 18 18 19 17 16 17 16 17
6 19 24 7 11 14 20 18 11 10 11 11 7 14 8 15 15 13 10 8 7 4 5 3 9 5 2 17 15 14 16 18 19 17 18 17 16 18 18 17 17 18 15 15
2 1 14 5 7 10 12 13 10 15 14 15 18 6 4 13 11 8 9 8 6 5 10 8 12 16 15 17 15 13 14 17 21 19 16 17 18 18 18 19 16 16 14 14
11 0 14 4 7 12 7 12 13 11 16 9 8 8 3 4 6 7 9 5 3 13 9 7 6 11 21 13 13 13 17 18 17 17 17 18 18 19 19 18 16 15 14 12
11 12 4 8 6 13 13 14 8 7 8 11 9 13 5 9 8 9 7 15 11 5 9 9 21 16 15 18 20 22 21 17 16 16 15 16 16 18 15 16 16 14 14 10
11 7 15 15 3 9 9 11 7 4 2 4 4 6 8 14 10 11 11 11 13 13 8 12 16 18 20 22 20 19 19 15 17 18 16 17 18 16 15 16 15 13 9 10
9 4 7 10 10 5 12 7 9 6 10 9 15 5 10 11 9 12 12 11 9 6 14 16 22 19 20 21 20 17 18 18 17 16 18 17 18 17 17 16 17 13 11 10
10 6 6 1 9 9 5 9 9 9 8 1 4 4 9 10 11 11 12 7 6 14 12 15 16 17 19 15 16 18 16 15 15 15 20 19 19 19 17 16 15 15 12 10
5 3 5 7 8 4 5 9 10 10 8 9 11 12 9 11 11 11 8 9 11 11 14 12 14 16 15 13 15 15 15 16 18 16 15 19 18 17 18 17 13 13 12 11
3 5 4 6 5 6 4 9 6 8 8 7 13 14 9 7 9 11 11 11 12 13 13 10 13 13 13 13 14 14 13 15 15 12 17 15 15 15 18 19 15 15 14 14
4 4 9 10 3 3 2 7 14 13 12 11 10 9 7 11 12 10 9 9 10 11 11 9 12 12 14 11 11 11 13 15 16 15 15 14 11 14 16 16 16 17 17 15
3 1 5 2 15 7 8 13 10 10 12 11 10 11 10 10 6 7 8 11 12 12 8 9 12 8 9 10 8 10 12 13 16 15 15 14 13 14 11 11 12 12 13 14
3 6 7 5 11 2 5 11 12 11 10 11 11 12 11 6 13 12 12 11 10 8 10 11 10 9 8 7 10 12 13 10 13 13 13 17 15 14 9 10 11 12 11 11
3 5 2 3 3 13 10 12 10 8 13 15 13 12 13 11 12 10 9 12 9 10 8 9 7 7 6 8 9 11 13 12 13 13 13 16 14 14 15 15 15 15 13 11
3 6 7 3 3 3 7 12 9 9 5 12 12 12 12 11 6 6 9 10 9 9 7 8 8 6 6 8 11 11 12 10 9 10 10 10 9 11 12 11 9 9 10 10
7 5 2 3 1 7 14 14 12 6 5 10 10 11 10 9 9 9 7 10 6 7 6 6 4 5 6 7 9 11 10 9 8 8 6 7 6 11 10 9 11 12 13 10
6 5 3 7 6 5 14 9 7 6 8 9 10 10 8 11 9 6 6 7 5 5 4 6 3 4 5 7 8 9 8 8 6 6 8 8 7 7 8 12 12 14 14 12
5 8 5 6 6 7 10 9 7 8 8 9 9 7 4 7 7 5 3 5 9 5 3 5 3 3 4 6 7 6 6 6 6 5 5 4 7 8 7 15 17 16 17 16
13 17 9 7 10 9 7 7 9 9 8 8 7 6 7 10 5 3 6 5 2 2 1 3 2 3 4 6 5 5 4 5 6 4 4 3 5 7 11 13 13 14 13 13
8 9 8 7 8 8 9 9 7 6 5 6 8 7 5 8 6 4 4 2 3 1 2 1 1 4 4 5 5 4 3 6 6 8 4 4 7 4 2 9 8 8 14 14
11 9 6 4 8 7 7 6 4 4 6 6 4 4 9 7 4 4 6 4 3 3 4 3 3 3 3 3 5 5 4 5 9 10 7 8 9 9 4 5 6 5 10 13

GFSCGP_925_spd_285.txt.gz
Wind_Speed
7 3 7 12 4 7 19 11 11 11 12 6 23 19 24 18 10 12 7 6 5 5 8 8 7 7 7 6 10 8 8 9 12 14 15 12 16 16 13 10 6 8 12 10
5 5 6 8 10 4 8 5 4 5 6 17 23 20 14 10 10 5 9 9 8 5 3 8 6 4 7 11 8 6 9 10 11 15 14 13 16 17 10 14 12 14 14 10
6 5 5 4 6 9 7 7 7 6 2 16 21 12 6 7 7 4 5 10 11 6 4 6 10 13 13 10 6 8 13 14 15 15 13 15 16 16 17 20 18 18 15 15
6 5 2 6 9 8 7 8 9 10 8 5 1 5 7 5 5 5 12 9 6 3 4 8 6 7 6 4 13 13 12 13 17 16 15 16 16 16 17 16 15 13 11 13
8 16 14 12 6 4 5 11 10 14 12 5 5 7 3 5 3 3 8 7 5 5 4 4 4 2 1 4 8 12 15 17 16 12 16 17 16 16 16 16 15 15 13 15
6 6 7 1 13 10 9 11 10 6 5 5 8 7 7 4 3 6 9 8 7 5 5 5 4 5 16 18 15 17 20 18 18 17 17 18 17 17 17 17 16 17 16 14
2 5 5 6 9 10 10 8 4 6 5 3 4 12 3 5 6 12 9 7 4 8 6 5 10 16 19 18 18 17 17 18 17 18 17 15 16 16 16 17 18 16 16 15
6 3 2 3 3 4 6 6 3 4 3 3 9 6 1 4 8 11 10 6 11 6 4 6 19 19 16 22 23 21 18 15 17 17 13 15 14 18 15 15 14 15 15 13
5 7 5 7 5 6 6 5 5 1 6 6 4 3 3 5 8 9 8 10 7 4 13 11 16 20 20 20 21 20 17 17 16 16 14 18 21 16 17 17 16 13 13 9
6 3 6 10 4 8 7 5 7 5 3 4 4 2 2 4 8 9 7 7 4 6 7 12 20 22 22 20 17 20 19 16 15 19 18 19 20 18 16 18 17 13 13 12
5 5 7 6 5 6 6 6 6 2 5 3 2 1 4 7 13 10 7 7 7 8 9 11 18 20 18 20 18 17 17 15 15 20 17 19 17 18 18 18 18 13 12 13
5 2 3 6 8 7 8 7 5 4 2 4 4 1 6 12 9 10 8 7 8 10 8 14 19 19 17 16 15 17 15 19 13 16 23 19 19 21 17 15 16 14 13 11
5 3 3 3 8 6 6 7 7 5 6 5 4 3 9 12 11 8 7 9 11 10 8 13 16 14 12 14 16 17 17 19 18 17 19 19 21 21 18 17 13 14 13 14
4 3 1 3 3 2 6 8 7 6 4 9 6 8 4 9 7 6 9 13 12 9 7 10 11 11 13 13 13 15 15 18 16 18 20 19 19 18 18 17 15 15 14 15
4 4 6 5 6 6 9 13 14 10 9 6 5 8 7 8 8 7 7 12 13 8 7 7 7 12 12 12 11 14 14 17 16 18 20 21 15 14 16 16 18 18 16 11
2 3 5 2 7 19 17 15 13 12 12 11 8 5 8 8 8 7 10 11 11 6 8 7 10 11 9 9 11 13 13 15 17 15 17 20 15 16 12 15 15 16 18 17
2 2 3 4 3 5 8 11 12 13 11 8 7 4 6 10 10 9 9 11 8 7 7 6 9 9 7 11 12 14 13 11 17 17 17 17 16 13 14 14 14 14 16 16
3 3 3 4 1 5 4 11 14 17 13 12 9 9 13 13 9 9 9 8 8 6 6 11 9 7 7 10 10 11 14 10 15 16 18 17 17 16 14 14 15 13 13 10
6 3 1 3 4 6 13 9 3 3 6 7 8 9 9 14 11 8 8 8 8 9 11 9 8 6 6 8 11 12 13 11 12 15 15 14 13 13 13 15 16 15 13 14
13 12 2 2 5 4 4 12 15 6 4 7 9 8 7 7 4 1 6 14 10 10 8 8 5 4 7 9 10 11 10 10 11 11 12 13 11 14 16 17 16 14 13 11
4 6 7 5 4 4 7 13 6 7 4 7 9 7 9 5 4 5 10 8 11 7 6 4 2 4 5 7 9 10 7 8 9 8 9 11 11 11 14 12 11 16 14 11
2 2 3 5 5 3 7 7 6 1 6 8 8 8 8 8 7 7 8 8 10 6 5 4 4 4 3 7 7 7 8 7 6 8 8 4 8 9 9 10 10 14 13 10
4 3 3 4 3 5 4 8 6 8 6 6 6 6 9 7 7 6 5 10 8 5 3 3 3 3 3 6 6 5 8 7 7 10 10 8 9 12 4 13 10 9 12 13
6 9 4 5 5 7 7 6 8 7 6 8 7 9 7 7 7 6 8 5 5 1 2 1 2 4 4 5 5 5 5 8 9 10 10 6 8 8 7 7 11 11 11 11
3 4 3 4 6 7 6 6 6 6 9 9 11 9 9 9 5 7 6 5 6 1 4 2 3 3 4 5 6 4 4 7 7 7 7 8 9 10 6 0 4 7 10 10
4 5 3 1 4 5 2 4 6 8 7 7 7 9 11 11 6 9 8 6 3 5 4 4 1 3 4 3 3 4 6 8 8 10 9 11 14 16 14 11 5 4 5 8

GFSCGP_925_spd_291.txt.gz
Wind_Speed
4 6 5 7 7 4 8 16 14 7 10 13 14 7 3 0 7 5 5 3 3 2 3 5 7 6 7 5 3 5 6 10 13 14 14 15 17 16 11 14 13 12 12 11
6 5 1 2 6 7 13 14 11 11 8 13 7 8 6 5 4 4 3 4 4 2 3 6 4 3 6 3 4 5 7 9 11 12 13 15 17 14 11 13 12 12 10 8
6 4 4 9 3 8 2 7 8 11 9 11 13 5 3 2 1 4 4 4 4 4 3 1 5 6 5 4 4 4 8 12 12 14 15 16 17 17 15 16 15 14 11 10
5 6 9 9 5 5 4 10 21 26 11 6 2 3 3 2 2 6 5 3 5 2 1 2 6 6 5 7 8 10 14 14 14 14 14 15 14 14 16 18 17 16 13 12
1 1 6 9 3 2 2 23 23 14 12 7 1 3 3 2 1 5 4 5 6 6 5 3 13 15 14 9 11 11 12 12 12 12 13 16 14 16 17 18 18 17 15 13
1 0 3 4 4 4 4 8 6 5 4 4 3 4 4 5 7 7 3 4 5 4 4 8 12 13 13 10 11 11 11 13 14 14 16 16 16 15 15 18 19 19 18 18
6 4 3 3 4 5 6 6 3 4 5 2 1 3 5 3 7 6 8 7 6 2 7 9 10 10 10 10 12 11 12 12 15 16 15 15 16 15 15 17 17 17 17 16
3 7 6 6 2 4 4 5 5 3 4 3 4 3 3 1 6 7 6 6 7 6 6 8 8 6 7 8 10 11 10 10 15 16 15 13 15 15 15 17 15 14 11 13
3 4 5 9 4 2 1 4 2 6 3 4 1 2 2 5 5 5 5 5 7 6 6 7 5 4 6 7 9 9 9 9 13 15 16 15 16 14 15 15 14 13 15 16
2 2 3 4 7 9 6 3 3 3 4 3 2 3 3 6 7 7 6 6 5 5 6 5 5 5 5 6 8 8 10 10 11 13 15 16 16 15 12 12 13 14 15 15
2 3 6 4 5 1 5 4 5 5 3 4 3 4 5 8 9 10 8 8 7 6 5 4 3 3 5 5 8 10 11 11 13 13 14 16 16 16 14 13 12 12 13 11
4 4 2 3 7 4 4 2 3 4 0 2 3 4 4 9 10 8 6 7 6 6 5 2 0 2 5 6 7 8 11 11 11 14 14 13 16 17 15 13 12 11 12 11
1 3 3 6 5 7 6 4 5 6 3 1 3 4 5 5 7 4 8 7 6 6 4 2 1 2 4 6 8 8 11 13 11 14 15 15 12 15 14 14 14 9 10 10
7 3 4 4 2 2 6 7 5 5 4 2 3 2 1 4 5 6 7 7 6 5 4 2 1 2 4 5 8 9 10 14 13 14 15 14 14 13 13 13 12 10 8 9
4 6 6 6 13 15 12 10 9 7 4 3 3 4 3 3 5 5 6 5 5 4 2 3 2 3 4 5 7 10 11 12 14 15 15 13 12 12 11 12 11 12 11 11
4 2 5 8 14 14 13 8 9 8 6 5 5 3 3 5 8 6 6 5 4 5 4 5 4 2 3 5 8 10 10 11 12 14 15 13 13 13 13 12 11 10 12 11
3 6 3 5 2 2 7 7 6 4 5 1 1 2 3 4 6 6 6 5 6 4 5 4 4 2 3 5 8 9 8 7 10 12 13 14 14 15 14 12 12 13 12 12
3 3 2 2 3 4 2 5 7 8 5 4 5 4 2 4 3 4 4 5 5 4 4 5 5 3 4 5 7 8 5 6 8 11 11 12 14 18 18 15 12 11 11 11
4 2 4 4 3 2 2 0 3 1 2 5 4 4 4 4 3 3 4 3 4 6 6 5 4 3 4 6 6 5 4 5 7 11 11 12 15 15 15 14 12 11 10 9
5 5 4 3 4 2 3 6 7 5 2 3 3 5 6 4 0 4 5 7 7 7 5 6 5 4 5 5 5 3 5 5 9 11 11 12 14 15 15 12 8 5 6 7
5 4 4 3 4 2 5 7 3 3 4 2 3 6 7 5 5 3 8 7 9 7 8 6 6 5 5 3 4 3 4 6 8 9 9 10 13 10 12 9 8 5 1 1
3 3 2 3 4 3 8 6 6 4 1 1 1 1 5 5 3 3 6 9 9 8 7 7 6 7 4 3 2 2 3 6 7 7 7 9 11 10 10 10 4 5 2 2
3 2 2 2 4 3 3 3 2 5 4 4 3 4 5 5 5 5 5 10 9 7 7 6 5 6 6 4 4 4 3 5 6 6 7 10 12 11 11 9 7 4 4 4
6 4 3 3 1 3 3 1 2 5 3 3 4 6 6 6 5 6 7 9 9 8 8 7 6 5 5 5 5 5 3 4 4 6 7 11 15 15 13 10 7 5 6 6
3 4 3 2 3 2 4 4 3 3 3 3 6 8 10 7 5 8 9 11 11 9 7 7 6 6 6 6 6 6 4 3 6 6 9 14 18 16 15 14 8 7 5 6
4 3 2 3 3 1 6 5 4 2 5 9 8 5 10 13 10 12 13 13 12 11 9 8 8 8 8 8 8 7 5 5 5 7 11 15 17 16 17 16 9 8 8 6